Theta_e
319 319 318 318 318 319 322 324 327 330 330 329 329 328 327 326 326 325 324 325 327 328 328 328 327 326 327 327 327 327 328 327 325 324 324 323 323 323 322 321 320 320 319
319 318 318 318 318 319 319 319 321 324 327 331 330 329 328 328 329 329 329 330 330 330 330 330 329 329 329 329 329 328 328 328 327 325 324 323 324 323 322 321 321 320 320
320 320 318 318 318 318 318 320 319 320 323 326 329 330 330 330 328 327 328 329 330 331 331 331 331 331 331 331 330 330 329 329 329 328 325 325 324 322 320 320 320 319 319
319 319 319 319 318 317 317 318 318 319 321 324 326 328 329 329 329 329 329 329 330 331 331 330 330 330 330 331 331 331 330 329 328 327 327 327 326 324 323 321 322 321 321
319 319 319 318 318 318 318 318 318 318 318 319 321 323 324 325 325 326 327 327 328 328 328 328 329 330 330 330 330 330 328 329 330 329 327 327 327 327 324 323 322 322 321
318 318 318 318 318 318 317 317 317 317 317 317 317 316 316 317 317 318 321 324 326 327 328 329 329 330 330 330 330 330 330 329 329 330 329 327 327 328 326 324 323 323 321
318 317 317 318 318 317 317 317 316 316 315 316 316 315 315 315 315 315 315 314 314 314 316 322 326 326 326 327 329 329 329 329 329 329 330 329 328 328 328 326 325 324 323
318 317 317 317 317 317 316 316 316 316 315 315 315 315 315 315 315 316 316 316 315 315 314 313 313 314 317 319 322 324 326 327 328 328 327 327 328 329 327 326 326 324 323
318 317 317 317 317 316 316 315 315 315 315 314 314 314 314 313 314 315 315 316 315 314 313 312 312 312 312 312 312 314 317 320 322 324 325 326 326 326 327 328 327 326 324
318 317 317 316 316 316 316 315 314 314 314 312 311 311 311 311 312 313 313 312 310 308 307 307 306 306 306 309 310 312 312 313 313 315 317 319 320 322 324 325 325 326 326
318 317 317 316 316 316 315 315 314 314 310 308 308 310 310 311 311 311 311 310 308 307 306 305 305 305 304 304 306 309 311 312 313 314 315 316 316 318 320 320 322 325 325
317 317 316 316 315 315 315 314 314 312 307 308 310 310 310 309 309 309 308 307 306 306 305 304 305 305 305 305 305 307 308 314 314 315 316 317 317 317 317 318 319 322 323
317 316 315 313 312 312 312 312 311 308 307 309 310 310 309 309 308 308 307 306 304 304 303 304 305 304 304 306 306 306 310 311 310 310 312 313 314 314 314 315 315 315 316
317 314 312 311 311 311 311 311 308 305 308 309 308 309 309 307 306 305 304 302 301 301 301 302 302 303 305 304 306 308 307 306 309 310 310 310 311 312 312 314 315 316 316
313 311 311 310 310 310 310 307 305 306 307 307 307 306 305 303 301 300 298 298 298 298 299 299 300 301 301 305 303 303 305 307 308 308 307 306 306 308 309 311 314 316 316
311 310 309 309 309 308 305 305 305 305 305 304 302 300 299 297 295 293 292 293 294 295 295 298 299 300 301 301 301 304 304 305 304 303 298 299 303 306 309 310 312 314 315
309 309 308 307 305 305 305 304 304 302 300 298 297 295 292 290 290 289 289 289 290 290 292 295 295 297 296 298 301 302 301 301 298 297 296 298 302 299 303 306 308 309 311
309 308 305 306 305 305 304 302 301 298 295 292 290 289 289 289 288 288 288 288 288 289 291 291 292 294 292 297 300 298 298 295 293 292 293 292 292 295 298 303 305 306 307
308 307 307 306 305 303 302 300 297 292 290 289 289 288 287 287 287 287 287 287 288 288 288 289 290 291 293 296 296 297 295 291 291 295 297 292 291 292 295 300 302 303 304
308 306 306 307 306 303 298 294 290 289 288 288 287 287 287 287 287 287 287 287 287 287 287 288 288 290 293 293 293 293 289 292 292 296 294 292 290 291 296 299 300 301 303
307 307 307 306 301 296 291 289 288 288 287 287 287 287 287 287 287 287 287 286 286 287 287 287 289 290 290 289 287 287 291 291 294 295 294 292 290 291 298 299 301 302 302
307 306 304 299 293 289 288 288 287 286 286 286 287 287 287 286 286 286 286 286 286 286 286 287 288 288 288 287 288 290 291 291 293 294 293 291 290 293 297 298 300 300 301
305 304 299 293 289 288 288 287 287 286 286 286 286 286 286 286 286 285 285 285 285 286 286 287 287 288 288 287 288 290 290 292 292 291 291 291 293 295 296 295 296 297 299
303 298 294 288 288 288 287 287 286 286 286 286 286 286 285 285 285 285 285 285 285 286 286 287 288 288 288 288 289 290 290 290 290 290 290 293 294 294 295 293 294 295 296
299 294 288 288 288 287 287 287 286 286 286 285 285 285 285 285 285 285 285 285 285 286 287 287 287 288 288 289 289 289 289 290 290 290 291 291 291 291 293 291 293 294 294
291 288 288 288 287 287 286 286 286 285 285 285 285 285 284 284 284 284 284 285 285 285 286 286 287 288 288 288 288 288 288 289 288 289 289 289 289 289 291 292 291 293 293
Wind_Speed
11 9 8 9 6 10 9 16 23 29 30 28 28 28 31 32 32 34 35 36 36 37 37 37 38 39 38 38 39 38 38 39 38 34 38 37 38 41 42 42 42 43 43
13 15 16 16 15 12 7 9 12 9 19 30 30 29 29 31 31 31 33 34 35 35 36 36 38 39 40 40 41 41 41 43 41 39 37 32 37 43 41 38 39 42 41
13 14 16 17 16 17 17 13 6 11 8 9 15 26 28 28 28 31 31 31 32 32 32 32 33 35 37 40 42 42 42 44 43 41 32 14 18 22 27 22 24 25 30
12 13 16 17 17 16 15 16 14 6 8 8 8 9 18 23 25 27 28 28 27 29 29 30 31 30 32 35 38 42 42 41 44 42 45 45 43 28 26 31 25 24 31
13 14 13 14 14 14 14 14 13 12 9 4 12 15 16 19 22 20 22 22 22 21 24 26 27 30 30 32 33 36 38 40 42 44 44 42 44 49 45 37 45 38 41
11 11 11 10 12 12 12 13 14 15 14 14 12 11 10 11 13 13 14 16 16 16 15 17 21 25 31 32 31 31 32 38 42 45 45 46 37 39 39 40 40 42 47
8 8 8 8 8 10 11 11 12 13 14 15 16 18 18 18 19 19 19 19 18 18 17 16 18 21 24 28 31 34 33 33 37 42 48 49 51 51 48 45 46 42 41
6 5 5 5 7 10 11 12 13 13 14 15 15 15 15 16 16 16 17 16 17 17 17 16 15 16 20 23 26 29 33 36 38 40 41 45 49 50 51 46 43 42 41
4 3 3 4 6 8 11 13 14 14 15 15 16 17 17 18 19 19 19 20 21 23 24 24 24 24 22 19 20 24 28 32 36 38 41 43 45 47 48 49 48 43 37
9 4 2 3 5 8 9 7 8 10 13 16 18 19 18 19 19 21 22 23 23 24 25 26 26 26 26 27 28 29 29 29 31 34 38 39 42 44 46 46 47 49 48
9 4 1 3 4 4 1 4 8 13 17 19 19 20 21 23 24 25 24 24 26 29 31 31 32 31 31 30 29 29 30 32 32 32 32 32 32 36 41 44 47 47 48
8 4 4 3 2 3 2 7 13 17 19 19 19 21 22 24 25 25 26 30 35 37 38 37 35 35 35 33 32 31 31 32 31 29 29 31 34 37 38 40 43 45 48
8 8 8 6 4 3 7 12 16 19 19 21 22 23 24 26 27 28 30 33 36 38 38 37 37 38 36 34 33 32 31 34 37 35 34 34 34 37 40 40 41 41 45
11 9 6 3 3 7 10 14 18 20 20 20 23 25 26 29 30 32 35 36 34 33 33 34 36 36 36 37 34 33 38 36 34 34 34 35 35 35 37 38 39 40 42
15 10 6 2 3 9 13 17 20 20 22 25 26 27 28 29 31 32 32 32 31 31 32 34 32 33 34 34 38 36 35 35 33 36 39 40 38 36 35 35 37 38 39
14 10 5 1 7 12 15 17 19 22 23 25 26 27 28 30 31 32 32 32 32 32 33 29 31 31 30 35 30 27 32 33 36 40 42 39 39 37 32 34 36 36 39
14 9 3 3 8 11 15 18 20 23 24 24 24 26 29 32 32 33 33 33 34 35 32 30 35 31 34 29 27 26 28 34 37 37 37 34 33 38 35 39 35 36 40
11 6 1 7 12 15 16 18 20 20 20 23 25 28 30 32 32 33 33 34 34 34 34 36 33 35 35 27 29 25 30 35 36 36 33 35 40 36 36 34 39 40 40
9 3 6 12 15 17 19 19 17 19 21 23 26 28 29 31 31 32 33 33 34 34 35 33 35 33 32 29 24 30 34 41 40 33 36 40 39 38 40 36 41 45 45
5 4 10 20 21 18 16 15 18 19 22 24 26 27 27 28 30 31 32 32 33 35 33 32 32 29 30 31 35 37 43 40 37 36 43 42 40 42 41 43 46 50 47
6 13 19 23 15 13 14 17 19 22 23 25 26 27 28 30 31 33 33 34 34 33 33 32 27 27 30 35 39 35 34 37 36 38 44 47 45 42 40 42 40 42 41
14 18 19 12 11 13 17 19 22 23 24 26 27 29 30 31 33 34 36 36 35 34 33 32 30 33 34 38 36 33 33 34 37 39 44 49 45 41 43 40 38 40 38
17 21 13 11 12 15 19 22 24 24 26 28 30 31 33 34 34 36 37 37 36 35 33 31 35 35 38 38 37 34 35 37 39 41 45 45 41 37 42 37 36 35 34
19 11 11 13 17 19 21 23 25 25 27 29 32 34 36 37 36 36 36 37 36 35 32 35 36 38 40 39 37 38 43 43 43 47 43 37 31 33 38 40 37 36 33
9 10 14 17 19 21 23 24 25 26 29 31 34 36 37 37 38 37 36 36 35 29 33 35 36 37 36 37 37 37 40 39 41 40 35 31 31 36 40 43 40 39 33
10 13 15 19 21 23 24 25 25 26 29 32 33 34 36 37 39 38 40 37 35 32 30 29 27 31 31 33 36 37 36 35 36 33 30 31 32 36 39 41 44 39 32
Wind_Direction
48 24 22 24 12 249 241 244 243 244 256 258 255 256 260 266 269 274 276 278 280 281 280 279 278 277 275 274 273 271 270 270 268 268 268 270 275 274 271 271 269 268 269
64 56 53 51 46 40 24 263 249 255 247 249 262 264 273 273 278 286 284 283 285 286 285 283 282 281 279 278 275 272 269 269 267 261 263 268 278 274 273 272 270 271 272
82 68 58 54 50 47 43 35 1 250 273 263 260 261 263 269 280 290 296 297 296 294 293 292 289 286 283 282 281 277 273 270 272 267 250 252 249 280 291 289 281 274 271
89 73 62 57 55 54 51 48 40 21 239 253 261 262 267 278 289 293 294 296 299 300 301 301 298 292 288 286 285 280 275 271 265 265 262 259 259 268 285 285 284 278 276
85 74 66 65 67 66 61 57 53 56 53 334 275 275 276 281 287 291 290 292 292 293 296 299 300 295 294 295 290 283 278 272 268 265 261 258 261 263 260 271 280 280 280
85 74 65 65 68 62 52 46 43 45 42 39 37 30 15 0 348 342 329 323 318 314 308 309 307 297 290 292 294 292 280 276 272 268 266 261 255 264 266 262 265 268 279
80 68 63 61 58 42 35 34 34 37 37 36 35 31 27 22 19 15 12 8 2 355 339 313 301 302 304 304 297 290 285 284 276 274 273 270 268 270 265 265 269 273 274
84 65 60 53 42 34 33 28 25 29 28 26 23 18 12 8 5 1 355 350 345 345 344 344 341 318 304 301 297 295 291 288 285 280 278 278 276 274 272 267 270 274 274
155 112 89 64 39 33 27 19 14 14 12 5 2 357 351 346 343 338 331 327 325 327 325 324 321 317 314 312 308 297 292 290 290 290 286 282 281 278 275 271 268 262 269
175 160 131 64 47 42 29 21 21 7 353 350 349 347 343 338 332 327 327 328 328 331 330 329 328 325 318 311 306 302 298 297 295 294 293 291 290 288 285 279 274 269 262
172 178 125 73 83 32 8 355 346 344 340 342 343 342 341 336 333 331 331 330 329 329 329 328 326 325 325 322 318 310 304 303 303 305 306 301 295 290 287 284 281 270 264
181 173 122 128 99 98 341 331 332 333 338 342 338 338 334 329 328 328 328 327 326 325 326 326 324 323 323 321 318 317 317 321 322 318 309 300 298 297 296 294 288 280 272
166 156 156 125 68 2 333 332 337 341 339 337 333 333 330 322 322 321 320 319 319 319 321 323 325 324 323 322 319 320 318 312 310 308 306 301 299 296 294 293 293 292 287
164 156 138 100 352 338 338 332 334 334 333 332 331 331 325 324 321 319 319 320 320 320 318 318 318 321 322 322 324 317 311 313 314 313 312 308 305 303 303 298 294 293 292
150 142 148 172 346 334 334 328 327 330 330 328 328 324 322 321 321 323 326 326 327 324 321 320 320 316 319 320 317 319 320 320 315 313 314 312 310 305 302 299 295 295 295
148 163 159 316 325 330 327 328 330 330 329 329 327 326 328 329 330 329 330 329 327 326 325 323 321 321 318 312 317 320 320 312 313 312 315 316 314 315 313 304 298 298 297
162 159 168 315 327 328 326 326 329 329 328 328 330 330 329 329 330 330 330 329 327 325 325 324 319 318 317 318 318 320 312 307 311 313 321 324 321 318 311 305 305 296 288
159 157 335 341 331 324 322 322 322 324 327 328 329 330 330 330 332 332 331 330 328 326 326 319 322 313 317 316 325 317 309 313 316 317 320 323 324 326 326 315 307 303 298
182 196 324 330 326 321 320 314 317 320 322 326 328 331 333 333 334 333 333 330 329 326 324 324 315 317 322 328 318 311 315 317 318 318 314 319 325 328 326 316 311 308 300
212 297 328 325 316 306 304 310 316 323 325 326 329 331 335 333 332 332 331 330 328 326 325 323 321 323 325 317 310 311 316 318 322 313 311 321 326 327 327 318 314 311 307
300 310 307 309 294 298 307 315 323 326 326 326 328 331 333 332 333 331 331 330 329 329 327 326 328 323 317 312 316 322 321 320 319 315 318 322 323 324 327 324 321 318 315
294 307 305 299 306 312 315 322 325 325 324 324 327 329 330 332 332 331 332 333 332 327 329 329 322 320 320 323 324 324 323 324 318 318 317 319 320 322 325 324 320 316 311
295 302 297 301 312 317 322 323 325 324 324 326 327 328 329 330 332 332 332 332 331 333 327 322 320 322 321 325 329 327 326 323 321 319 317 318 317 318 322 330 329 326 324
289 285 298 308 318 321 323 324 324 324 325 325 325 327 328 330 331 332 331 330 332 329 323 321 320 320 321 324 326 326 326 327 325 323 324 319 315 316 327 336 335 332 330
288 301 306 313 316 321 325 326 326 326 325 324 324 325 326 327 328 327 327 328 327 321 317 315 316 317 318 321 321 323 327 326 325 323 324 322 325 326 330 337 337 335 332
290 300 309 314 319 322 323 327 327 325 323 320 320 321 322 324 326 326 326 326 325 321 318 316 317 317 315 318 321 324 326 327 329 328 331 326 324 329 327 330 335 336 332